Regional Weather Roundup
Issued by NWS

Home | Current Version | Previous Version | Text Only | Print | Product List | Glossary On
Versions: 1 2 3 4 5 6 7 8 9 10 11 12 13 14 15 16 17 18 19 20 21 22 23 24 25 26 27 28 29 30 31 32 33 34 35 36 37 38 39 40 41 42 43 44 45 46 47 48 49 50
000
ASUS46 KPQR 041010
RWROR

OREGON REGIONAL WEATHER ROUNDUP
NATIONAL WEATHER SERVICE PORTLAND OR
300 AM PDT MON MAY 04 2015

NOTE: "FAIR" INDICATES FEW OR NO CLOUDS BELOW 12,000 FEET WITH
NO SIGNIFICANT WEATHER AND/OR OBSTRUCTIONS TO VISIBILITY.

ORZ001>013-041100-
NORTHWEST OREGON


CITY           SKY/WX    TMP DP  RH WIND       PRES   REMARKS
ASTORIA        CLOUDY    49  45  86 W5        29.93S
NEWPORT        CLOUDY    50  45  81 NW3       29.99R
PORTLAND       CLEAR     51  42  71 CALM      29.90R
VANCOUVER WA   CLEAR     46  39  76 CALM      29.89R
SCAPPOOSE      CLEAR     45  42  89 SW3       29.89R
HILLSBORO      CLEAR     45  42  89 CALM      29.89R
AURORA         CLEAR     48  45  89 CALM      29.90S
MCMINNVILLE    CLEAR     48  43  82 W5        29.90S
SALEM          CLEAR     49  41  74 SW3       29.89S
CORVALLIS      CLEAR     46  43  87 NW10      29.92R
EUGENE         CLEAR     45  40  82 SW7       29.92R
$$

ORZ021-028-041100-
SOUTHWEST OREGON


CITY           SKY/WX    TMP DP  RH WIND       PRES   REMARKS
NORTH BEND     CLOUDY    52  46  82 N7        29.99S
BROOKINGS      CLOUDY    48  48 100 CALM      29.97S FOG
ROSEBURG       CLEAR     49  41  74 CALM      29.92R
SEXTON SUMMIT  CLEAR     52  31  44 NW3       29.92S
MEDFORD        CLEAR     50  38  63 NE3       29.88S
$$

ORZ014>016-041-041100-
COLUMBIA GORGE


CITY           SKY/WX    TMP DP  RH WIND       PRES   REMARKS
TROUTDALE      CLEAR     49  44  83 CALM      29.88S
THE DALLES     CLEAR     47  36  65 SE5       29.85S
$$

ORZ029>031-041-044-049-050-061>064-502-503-505>511-041100-
EASTERN OREGON


CITY           SKY/WX    TMP DP  RH WIND       PRES   REMARKS
REDMOND        CLEAR     39  26  59 S6        29.89F WCI  35
BEND           CLEAR     43  28  56 SW8       29.90F
PRINEVILLE     CLEAR     37  25  60 CALM      29.90S
KLAMATH FALLS  CLEAR     39  33  79 CALM      29.93S
LAKEVIEW       CLEAR     36  27  69 NE6       29.96S WCI  31
HERMISTON      CLEAR     39  33  79 SE5       29.83F
PENDLETON      CLEAR     43  34  70 E9        29.84F
JOHN DAY       MOCLDY    48  29  47 SE12      29.92S
MEACHAM        CLEAR     29  26  89 CALM      29.90S
LA GRANDE      CLEAR     37  25  60 CALM      29.89S
BAKER CITY     CLEAR     33  30  88 NW3       29.91S
BURNS          MOCLDY    46  24  42 W6        29.89F
ROME             N/A     50  28  42 NE8       29.87S
ONTARIO        CLEAR     49  33  54 SW6       29.86R
$$


USA.gov is the U.S. government's official web portal to all federal, state and local government web resources and services.